This demonstration page uses our WeatherBlox Daily Observations layout. Learn more.

Left ArrowRight Arrow

40.97296, -117.73568

Hourly Observations for March 20, 2016

Temp ( °F °C ) Dew Point ( °F °C ) Humidity (%) Winds ( mph kmh ) Pressure ( in mb ) Visibility ( mi km ) Precip ( " mm )
12:56 am 00:56 Clear 38 3.3 28 -2.2 68 68 SE 7 11 29.96 1015 10 16 0.00 0.00
1:56 am 01:56 Clear 32 0 27 -3 80 80 SE 3 6 30.15 1021 10 16 0.00 0.00
2:56 am 02:56 Clear 34 1.1 27 -2.8 76 76 N 5 7 29.96 1015 10 16 0.00 0.00
3:56 am 03:56 Clear 30 -1.1 25 -3.9 82 82 Calm 29.97 1015 10 16 0.00 0.00
4:56 am 04:56 Clear 30 -1.1 24 -4.4 79 79 Calm 29.98 1015 10 16 0.00 0.00
5:56 am 05:56 Clear 27 -2.8 23 -5 85 85 SSE 6 9 29.99 1016 10 16 0.00 0.00
7:56 am 07:56 Sunny 35 1.7 26 -3.3 70 70 ENE 3 6 30.01 1016 10 16 0.00 0.00
9:56 am 09:56 Sunny 50 10 28 -2.2 43 43 Calm 30.00 1016 10 16 0.00 0.00
11:56 am 11:56 Sunny 60 15.6 32 0 35 35 NNW 3 6 29.96 1015 10 16 0.00 0.00
1:56 pm 13:56 Sunny 67 19.4 28 -2.2 23 23 W 9 15 29.92 1013 10 16 0.00 0.00
2:56 pm 14:56 Sunny 68 20 27 -2.8 21 21 SW 13 20 29.89 1012 10 16 0.00 0.00
3:56 pm 15:56 Sunny 69 20.6 22 -5.6 17 17 SSW 16 26 29.86 1011 10 16 0.00 0.00
4:56 pm 16:56 Sunny 65 18.3 24 -4.4 21 21 SW 14 22 29.87 1011 10 16 0.00 0.00
5:56 pm 17:56 Cloudy 63 17.2 30 -1.1 29 29 SW 10 17 29.89 1012 10 16 0.00 0.00
6:18 pm 18:18 Mostly Cloudy 57 14 36 2 44 44 W 24 39 29.83 1010 10 16 0.00 0.00
6:56 pm 18:56 Sunny 54 12.2 37 2.8 53 53 W 22 35 29.93 1014 10 16 0.00 0.00
7:56 pm 19:56 Cloudy 53 11.7 38 3.3 57 57 W 14 22 29.95 1014 10 16 0.00 0.03
8:56 pm 20:56 Cloudy 53 11.7 37 2.8 55 55 N 7 11 29.93 1013 10 16 0.00 0.03
9:56 pm 21:56 Cloudy 51 10.6 38 3.3 61 61 NNW 8 13 29.91 1013 10 16 0.00 0.00
10:56 pm 22:56 Mostly Cloudy 48 8.9 36 2.2 63 63 WNW 7 11 29.92 1013 10 16 0.00 0.00
11:56 pm 23:56 Cloudy 48 8.9 36 2.2 63 63 Calm 29.91 1013 10 16 0.00 0.00

Powered by AerisWeather